Location: Bonaustraße
(48.4603°N, 11.9280°E)
Time: 09:16:29
(UTC+02:00)

STRAND 1 - Pass Details

Date: 05 August 2021
Orbit: 768 x 781 km, 98.4° (Epoch: 27 September)

Event Time Altitude Azimuth Distance (km) Brightness Sun altitude
Rises 22:33:12 0° 359° (N) 3,254 ? -15.2°
Reaches altitude 10° 22:36:50 10° 332° (NNW) 2,320 ? -15.6°
Maximum altitude 22:39:00 13° 307° (NW) 2,127 ? -15.8°
Drops below altitude 10° 22:41:09 10° 282° (WNW) 2,313 ? -16.0°
Sets 22:44:46 0° 255° (WSW) 3,235 ? -16.4°
